When you browse on this site, cookies collect data to enhance your experience and personalize the content and advertising you see.
Visit our Privacy Policy to learn more. By continuing to use the site, you agree to this use of cookies and data.
  • In Hungary
  • List of Countries
  • For 7 days
  • Water Temperature
  • Satellite Maps
  • Weather Map
  • News
  • Weather Widgets
  • user-avatar
    Login

    Hourly Weather Cyklady

    Today, 21 November, Wednesday

    Time Temperature Precipitation Wind Pressure Humidity
    00:00 +10°C° 0.7 mm 3 mps 682 mmHg 84%
    01:00 +10°C° 0.7 mm 3 mps 682 mmHg 86%
    02:00 +10°C° 1.2 mm 3 mps 681 mmHg 88%
    03:00 +10°C° 1.2 mm 3 mps 681 mmHg 90%
    04:00 +10°C° 1.2 mm 3 mps 681 mmHg 91%
    05:00 +10°C° 0.2 mm 3 mps 681 mmHg 92%
    06:00 +10°C° 0.2 mm 2 mps 681 mmHg 92%
    07:00 +9°C° 0.2 mm 2 mps 681 mmHg 93%
    08:00 +11°C° 0.1 mm 3 mps 682 mmHg 86%
    09:00 +12°C° 0.1 mm 3 mps 682 mmHg 80%
    10:00 +13°C° 0.1 mm 4 mps 682 mmHg 74%
    11:00 +13°C° 0.1 mm 4 mps 682 mmHg 73%
    12:00 +13°C° 0.1 mm 4 mps 682 mmHg 72%
    13:00 +14°C° 0.1 mm 4 mps 682 mmHg 72%
    14:00 +13°C° 0.1 mm 4 mps 682 mmHg 76%
    15:00 +12°C° 0.1 mm 4 mps 682 mmHg 79%
    16:00 +11°C° 0.1 mm 4 mps 682 mmHg 83%
    17:00 +11°C° 0.1 mm 3 mps 682 mmHg 86%
    18:00 +10°C° 0.1 mm 3 mps 682 mmHg 89%
    19:00 +9°C° 0.1 mm 3 mps 682 mmHg 91%
    20:00 +9°C° 0 mm 3 mps 683 mmHg 92%
    21:00 +9°C° 0 mm 3 mps 683 mmHg 92%
    22:00 +9°C° 0 mm 3 mps 683 mmHg 93%
    23:00 +9°C° 0 mm 3 mps 683 mmHg 93%

    Tomorrow, 22 November, Thursday

    Time Temperature Precipitation Wind Pressure Humidity
    00:00 +8°C° 0 mm 3 mps 683 mmHg 93%
    01:00 +8°C° 0 mm 3 mps 683 mmHg 93%
    02:00 +8°C° 0 mm 3 mps 683 mmHg 93%
    03:00 +8°C° 0 mm 3 mps 683 mmHg 94%
    04:00 +8°C° 0 mm 2 mps 683 mmHg 94%
    05:00 +8°C° 0 mm 2 mps 683 mmHg 93%
    06:00 +7°C° 0 mm 2 mps 683 mmHg 93%
    07:00 +7°C° 0 mm 2 mps 684 mmHg 92%
    08:00 +9°C° 0 mm 2 mps 684 mmHg 84%
    09:00 +12°C° 0 mm 2 mps 685 mmHg 75%
    10:00 +14°C° 0 mm 2 mps 685 mmHg 67%
    11:00 +14°C° 0 mm 2 mps 685 mmHg 64%
    12:00 +14°C° 0 mm 3 mps 685 mmHg 62%
    13:00 +14°C° 0 mm 3 mps 685 mmHg 59%
    14:00 +13°C° 0 mm 3 mps 685 mmHg 65%
    15:00 +13°C° 0 mm 2 mps 685 mmHg 71%
    16:00 +12°C° 0 mm 2 mps 685 mmHg 76%
    17:00 +10°C° 0 mm 2 mps 685 mmHg 80%
    18:00 +10°C° 0 mm 2 mps 685 mmHg 83%
    19:00 +9°C° 0 mm 2 mps 685 mmHg 87%
    20:00 +9°C° 0 mm 2 mps 685 mmHg 88%
    21:00 +8°C° 0 mm 2 mps 685 mmHg 89%
    22:00 +8°C° 0 mm 2 mps 686 mmHg 89%
    23:00 +8°C° 0 mm 2 mps 686 mmHg 90%

    Day after tomorrow, 23 November, Friday

    Time Temperature Precipitation Wind Pressure Humidity
    00:00 +7°C° 0 mm 2 mps 686 mmHg 90%
    01:00 +7°C° 0 mm 2 mps 686 mmHg 91%
    02:00 +7°C° 0 mm 2 mps 686 mmHg 91%
    03:00 +7°C° 0 mm 2 mps 686 mmHg 91%
    04:00 +7°C° 0 mm 2 mps 686 mmHg 92%
    05:00 +7°C° 0 mm 2 mps 686 mmHg 91%
    06:00 +7°C° 0 mm 2 mps 687 mmHg 91%
    07:00 +7°C° 0 mm 2 mps 687 mmHg 91%
    08:00 +9°C° 0 mm 1 mps 688 mmHg 83%
    09:00 +11°C° 0 mm 1 mps 688 mmHg 75%
    10:00 +13°C° 0 mm 1 mps 689 mmHg 67%
    11:00 +13°C° 0 mm 1 mps 689 mmHg 66%
    12:00 +13°C° 0 mm 1 mps 688 mmHg 64%
    13:00 +14°C° 0 mm 1 mps 688 mmHg 62%
    14:00 +13°C° 0 mm 1 mps 688 mmHg 67%
    15:00 +12°C° 0 mm 1 mps 688 mmHg 71%
    16:00 +11°C° 0 mm 1 mps 688 mmHg 76%
    17:00 +11°C° 0 mm 1 mps 688 mmHg 79%
    18:00 +10°C° 0 mm 1 mps 688 mmHg 82%
    19:00 +9°C° 0 mm 1 mps 688 mmHg 85%
    20:00 +9°C° 0 mm 1 mps 688 mmHg 86%
    21:00 +9°C° 0 mm 1 mps 688 mmHg 87%
    22:00 +8°C° 0 mm 1 mps 689 mmHg 87%
    23:00 +8°C° 0 mm 1 mps 688 mmHg 88%

    24 November, Saturday

    Time Temperature Precipitation Wind Pressure Humidity
    00:00 +8°C° 0 mm 1 mps 688 mmHg 89%
    01:00 +7°C° 0 mm 1 mps 688 mmHg 89%
    02:00 +7°C° 0 mm 1 mps 688 mmHg 90%
    03:00 +7°C° 0 mm 1 mps 688 mmHg 90%
    04:00 +6°C° 0 mm 1 mps 688 mmHg 90%
    05:00 +5°C° 0 mm 2 mps 688 mmHg 89%
    06:00 +5°C° 0 mm 2 mps 688 mmHg 89%
    07:00 +5°C° 0 mm 2 mps 688 mmHg 88%
    08:00 +7°C° 0 mm 2 mps 688 mmHg 81%
    09:00 +9°C° 0 mm 2 mps 688 mmHg 74%
    10:00 +12°C° 0 mm 2 mps 689 mmHg 67%
    11:00 +12°C° 0 mm 2 mps 689 mmHg 65%
    12:00 +13°C° 0 mm 2 mps 688 mmHg 63%
    13:00 +13°C° 0 mm 2 mps 688 mmHg 61%
    14:00 +12°C° 0.1 mm 2 mps 688 mmHg 67%
    15:00 +12°C° 0.1 mm 1 mps 688 mmHg 73%
    16:00 +11°C° 0.1 mm 1 mps 688 mmHg 79%
    17:00 +10°C° 0 mm 1 mps 687 mmHg 83%
    18:00 +9°C° 0 mm 1 mps 687 mmHg 87%
    19:00 +9°C° 0 mm 1 mps 687 mmHg 91%
    20:00 +9°C° 0 mm 1 mps 687 mmHg 92%
    21:00 +9°C° 0 mm 1 mps 687 mmHg 93%
    22:00 +9°C° 0 mm 1 mps 687 mmHg 94%
    23:00 +9°C° 0 mm 1 mps 687 mmHg 94%

    25 November, Sunday

    Time Temperature Precipitation Wind Pressure Humidity
    00:00 +9°C° 0 mm 1 mps 687 mmHg 94%
    01:00 +9°C° 0 mm 1 mps 686 mmHg 95%
    02:00 +8°C° 0 mm 1 mps 686 mmHg 94%
    03:00 +8°C° 0 mm 1 mps 686 mmHg 94%
    04:00 +8°C° 0 mm 1 mps 685 mmHg 94%
    05:00 +8°C° 0 mm 1 mps 685 mmHg 92%
    06:00 +8°C° 0 mm 1 mps 685 mmHg 91%
    07:00 +8°C° 0 mm 1 mps 685 mmHg 89%
    08:00 +9°C° 0 mm 2 mps 685 mmHg 84%
    09:00 +10°C° 0 mm 2 mps 686 mmHg 78%
    10:00 +12°C° 0 mm 2 mps 686 mmHg 73%
    11:00 +13°C° 0 mm 2 mps 685 mmHg 72%
    12:00 +13°C° 0 mm 2 mps 685 mmHg 71%
    13:00 +13°C° 0 mm 2 mps 684 mmHg 70%
    14:00 +12°C° 0.1 mm 2 mps 684 mmHg 74%
    15:00 +12°C° 0.1 mm 2 mps 684 mmHg 78%
    16:00 +10°C° 0.1 mm 2 mps 683 mmHg 82%
    17:00 +10°C° 0.2 mm 2 mps 683 mmHg 83%
    18:00 +9°C° 0.2 mm 2 mps 683 mmHg 84%
    19:00 +9°C° 0.2 mm 2 mps 683 mmHg 85%
    20:00 +9°C° 0.3 mm 2 mps 683 mmHg 86%
    21:00 +9°C° 0.3 mm 3 mps 682 mmHg 86%
    22:00 +9°C° 0.3 mm 3 mps 682 mmHg 87%
    23:00 +9°C° 0.4 mm 3 mps 682 mmHg 89%

    26 November, Monday

    Time Temperature Precipitation Wind Pressure Humidity
    00:00 +8°C° 0.4 mm 4 mps 681 mmHg 91%
    01:00 +8°C° 0.4 mm 4 mps 681 mmHg 93%
    02:00 +8°C° 1.7 mm 4 mps 681 mmHg 93%
    03:00 +8°C° 1.7 mm 4 mps 680 mmHg 94%
    04:00 +10°C° 1.7 mm 4 mps 680 mmHg 95%
    05:00 +10°C° 2.7 mm 4 mps 680 mmHg 95%
    06:00 +10°C° 2.7 mm 4 mps 680 mmHg 95%
    07:00 +10°C° 2.7 mm 4 mps 680 mmHg 96%
    08:00 +11°C° 1.1 mm 4 mps 680 mmHg 95%
    09:00 +11°C° 1.1 mm 4 mps 680 mmHg 94%
    10:00 +11°C° 1.1 mm 4 mps 680 mmHg 93%
    11:00 +11°C° 1 mm 4 mps 680 mmHg 91%
    12:00 +11°C° 1 mm 4 mps 680 mmHg 90%
    13:00 +12°C° 1 mm 4 mps 679 mmHg 89%
    14:00 +11°C° 0.8 mm 3 mps 679 mmHg 90%
    15:00 +11°C° 0.8 mm 3 mps 679 mmHg 91%
    16:00 +12°C° 0.8 mm 2 mps 679 mmHg 92%
    17:00 +10°C° 0.4 mm 2 mps 680 mmHg 93%
    18:00 +10°C° 0.4 mm 2 mps 680 mmHg 94%
    19:00 +9°C° 0.4 mm 2 mps 680 mmHg 95%
    20:00 +9°C° 0.1 mm 2 mps 680 mmHg 95%
    21:00 +9°C° 0.1 mm 2 mps 680 mmHg 95%
    22:00 +10°C° 0.1 mm 1 mps 680 mmHg 95%
    23:00 +10°C° 0.1 mm 1 mps 680 mmHg 95%
    Show more